Wind_Speed
45 49 68 69 60 48 40 44 43 47 44 39 42 41 42 29 27 26 22 18 22 21 19 18 19 28 28 26 26 32 32 30 30 28 31 28 27 22 26 25 18 14 18 17
47 63 63 57 52 45 48 46 47 51 45 36 37 35 31 27 22 19 14 14 18 20 20 21 24 27 30 25 25 29 29 29 28 29 27 27 22 21 22 20 14 14 14 7
61 58 59 46 46 46 49 48 50 50 34 27 35 43 35 20 19 16 12 15 16 20 23 21 24 28 24 23 16 21 26 27 26 29 25 23 18 20 19 15 12 14 7 4
55 63 16 47 57 50 54 50 46 46 34 20 10 11 34 19 21 20 12 8 7 14 18 19 18 12 12 10 10 17 24 23 26 24 23 18 15 16 15 14 12 12 4 2
47 45 60 42 45 52 55 42 43 40 37 32 32 17 36 27 23 18 11 11 15 15 15 8 12 9 10 8 12 19 19 22 22 22 17 13 14 13 11 14 10 9 4 1
42 31 36 59 46 37 32 18 21 25 24 9 28 20 28 28 29 20 14 12 9 9 9 7 10 12 9 9 13 14 19 20 19 17 12 11 12 11 13 14 8 6 4 2
33 33 23 26 36 35 30 28 3 4 5 6 21 17 35 18 10 22 18 10 11 13 10 7 9 10 9 9 12 16 17 15 15 11 9 10 10 11 14 14 4 4 2 3
23 11 31 27 37 36 37 36 15 7 4 4 16 15 20 17 15 15 14 15 15 13 11 9 4 8 8 8 13 14 11 13 10 8 8 8 8 9 13 6 3 3 3 5
21 26 8 34 29 34 34 42 32 11 8 3 8 7 19 19 14 13 16 13 13 14 12 5 3 6 6 9 11 7 9 10 7 5 7 6 6 8 7 6 3 4 6 8
25 15 29 26 29 34 39 33 27 24 7 5 6 9 13 13 15 11 10 7 13 17 11 4 2 6 6 9 6 7 8 7 4 3 4 4 5 8 5 3 3 5 5 6
36 8 12 35 38 41 35 34 24 27 14 5 1 6 9 19 11 10 6 9 12 16 6 2 4 8 8 7 6 6 5 5 3 2 2 4 6 8 4 4 5 7 7 8
24 22 14 37 37 38 44 43 43 26 18 17 4 11 16 11 16 7 5 8 16 13 7 3 6 9 9 7 6 4 3 3 2 2 3 4 7 13 8 5 6 4 5 8
2 16 10 4 25 27 49 49 47 38 21 34 8 5 14 15 18 12 8 11 18 14 8 4 7 9 8 7 5 3 1 1 2 1 4 5 6 9 14 8 8 11 10 8
6 12 14 11 17 25 40 44 43 40 22 28 48 29 28 16 13 13 16 18 20 14 8 4 7 11 7 7 5 2 1 2 3 2 5 6 5 5 9 9 7 8 8 10
5 9 18 30 17 16 18 41 47 52 41 22 27 41 25 18 10 7 10 21 21 16 11 5 7 12 7 8 6 4 2 3 3 4 5 6 5 4 6 8 9 6 4 7
3 4 11 28 37 27 22 16 39 49 54 49 34 30 34 18 15 12 10 18 17 16 13 7 8 13 8 9 7 5 4 4 4 5 5 6 5 5 6 7 8 11 9 10
17 5 14 5 20 20 25 40 25 32 43 51 45 47 32 26 20 20 20 17 14 14 14 10 4 7 9 10 8 7 5 5 4 6 6 7 7 7 8 8 8 10 13 16
12 15 6 5 3 5 21 29 31 26 23 44 48 40 38 32 20 18 21 21 15 15 16 13 8 10 11 13 11 9 8 6 5 6 7 8 9 7 8 9 8 10 11 12
7 10 3 3 4 9 14 6 22 32 31 17 22 38 36 34 31 27 21 24 14 18 17 12 7 7 10 12 12 10 8 8 6 6 8 8 9 8 6 7 6 9 11 11
12 10 11 3 3 6 1 15 9 23 30 32 28 25 33 32 33 30 24 27 19 20 17 16 14 11 12 10 13 12 8 8 7 6 7 8 8 8 6 6 5 6 9 12
6 17 22 20 6 3 7 12 29 18 17 27 29 31 29 38 32 24 25 28 21 20 21 20 19 12 12 11 10 13 12 9 9 7 6 8 9 8 7 7 5 5 8 9
5 4 10 12 7 4 11 8 17 14 19 26 31 34 29 29 32 36 30 30 27 25 25 25 23 18 17 13 12 10 12 12 8 9 8 8 8 8 7 8 8 8 7 9
7 8 3 6 6 2 5 11 8 10 21 25 24 36 33 28 35 31 34 31 28 26 29 26 26 23 19 16 12 14 12 11 11 9 9 9 10 11 9 7 8 9 10 9
7 7 10 11 5 9 6 4 7 1 13 24 25 26 31 30 30 30 33 27 29 29 32 27 28 28 24 17 12 16 18 16 13 12 10 10 9 10 11 13 12 11 10 11
2 3 4 9 14 9 9 1 2 7 10 22 25 28 25 30 32 31 33 30 28 26 32 27 23 29 28 22 15 17 21 21 16 17 15 12 12 11 11 13 14 14 14 14
7 5 2 5 8 12 3 4 3 8 10 17 22 23 31 32 31 34 34 29 28 29 31 27 24 26 30 26 19 12 18 22 18 21 19 16 13 14 13 13 14 14 16 18
Wind_Direction
224 222 227 229 232 238 253 256 265 269 272 276 282 289 292 293 288 271 265 284 273 270 251 264 270 264 279 273 277 273 270 279 284 297 305 303 307 308 313 315 313 300 300 301
219 226 230 233 236 238 240 247 256 264 267 278 283 287 292 286 276 258 272 276 259 254 259 271 279 273 276 274 274 271 269 274 284 299 299 305 305 307 312 317 315 317 311 292
221 236 227 232 231 231 237 241 249 258 260 257 281 288 291 276 258 255 267 263 248 258 274 270 280 282 277 270 277 271 266 270 287 298 298 303 301 307 315 317 318 326 315 292
231 225 222 231 230 232 238 241 248 256 260 266 276 296 283 272 244 239 255 240 267 278 274 270 282 278 274 268 268 270 263 277 294 292 300 298 298 310 318 322 320 327 305 308
230 230 220 222 231 230 239 240 251 257 257 270 273 276 279 286 252 233 231 245 282 282 275 287 277 255 258 257 268 258 270 287 289 294 294 293 296 308 319 338 321 326 274 331
240 238 230 234 232 238 233 232 241 251 253 252 259 244 275 268 246 230 234 270 256 268 268 269 252 262 241 270 268 266 281 286 288 294 293 291 297 313 316 328 309 294 277 243
230 223 233 228 220 224 216 208 219 255 221 224 263 235 249 262 232 230 243 238 270 273 243 267 264 249 255 265 265 271 281 286 294 294 291 290 301 319 321 331 324 287 238 191
215 200 208 211 213 203 205 201 182 189 203 242 246 216 238 270 253 230 236 254 274 260 233 241 216 231 232 250 262 278 281 291 300 292 293 302 313 320 339 6 9 134 150 140
210 223 216 224 215 208 203 209 213 224 245 215 234 225 235 240 224 225 251 265 270 236 230 198 219 216 227 271 277 270 280 295 292 298 298 313 316 332 359 26 95 125 94 120
227 234 228 220 214 219 218 211 194 213 195 227 277 234 227 233 220 222 225 222 234 198 198 185 226 215 249 288 258 261 279 282 288 314 314 326 337 329 354 22 116 125 119 123
209 223 217 204 204 197 194 199 202 206 219 171 180 247 229 222 164 179 183 229 206 198 174 158 250 226 256 259 248 250 277 274 264 339 353 22 3 15 36 82 101 123 105 138
200 219 230 203 220 216 211 205 200 201 191 216 204 238 200 170 200 210 266 244 194 186 165 177 224 235 264 229 235 239 276 273 237 9 63 75 68 53 64 68 107 135 108 146
205 201 200 196 200 203 211 210 213 214 219 210 196 197 178 193 217 220 234 231 203 187 180 201 236 237 254 216 221 215 303 229 173 83 113 131 96 66 58 84 96 103 100 125
301 233 216 205 208 198 203 209 211 206 202 210 221 225 231 228 201 229 255 224 208 189 180 188 228 227 239 205 200 156 30 140 143 120 140 141 140 71 64 61 95 107 109 103
320 274 249 230 195 191 203 214 210 211 212 212 226 222 228 224 222 230 192 192 205 198 195 192 239 224 232 200 184 139 86 126 141 131 143 152 153 110 85 69 83 58 145 131
277 292 311 235 232 232 234 217 225 222 220 230 230 227 224 226 225 226 199 196 202 205 184 199 231 212 222 197 175 152 108 107 145 126 134 140 148 125 97 83 82 87 96 84
298 292 344 254 231 249 257 224 222 230 224 226 230 231 230 225 239 230 217 214 193 203 191 202 245 209 211 196 173 160 132 108 137 131 135 130 137 134 111 93 85 93 88 91
298 289 326 286 171 200 247 238 225 228 227 229 232 239 240 233 235 233 212 213 194 188 187 186 212 210 205 198 182 173 155 129 121 143 138 141 138 143 123 108 100 98 105 102
263 267 238 252 243 268 220 226 209 227 229 223 242 239 242 245 248 241 211 203 206 195 194 183 188 208 210 199 188 177 170 152 131 143 149 156 148 147 134 115 101 106 110 111
208 235 213 227 244 214 311 200 203 209 229 232 232 228 230 232 237 220 214 197 200 195 189 189 195 198 200 196 193 187 175 160 151 136 156 158 160 158 147 134 112 104 112 116
222 205 212 228 277 258 302 211 203 186 217 215 226 228 223 220 220 223 216 204 204 196 191 194 201 213 201 196 190 189 179 170 169 158 154 163 161 167 165 146 137 129 118 121
184 145 193 205 241 274 305 171 186 221 224 209 218 222 221 217 215 225 220 207 200 201 195 198 205 211 211 206 200 190 183 189 178 173 168 161 165 161 168 159 151 144 132 128
228 252 216 246 223 70 78 71 82 206 233 218 211 220 220 220 219 209 219 216 218 213 201 203 206 211 212 206 201 200 201 204 197 189 187 173 165 165 171 172 157 147 143 141
191 223 253 283 176 195 129 95 80 170 223 217 218 214 221 222 217 207 210 215 217 214 200 202 201 211 214 209 193 197 202 219 220 203 201 195 182 174 177 174 167 160 155 152
4 151 248 260 257 187 192 183 118 151 189 201 212 214 215 218 206 206 211 213 216 219 213 200 201 208 214 211 197 202 210 216 221 215 205 202 200 193 189 181 173 170 168 167
28 19 294 317 272 324 179 197 93 131 156 182 199 204 212 212 199 200 203 211 220 211 208 214 213 209 211 210 204 208 223 220 223 215 209 205 205 207 203 202 191 186 183 179
Height
3064 3068 3056 3057 3068 3079 3089 3090 3089 3093 3093 3093 3093 3088 3085 3084 3084 3085 3086 3087 3088 3089 3091 3092 3092 3091 3093 3092 3093 3091 3092 3092 3091 3090 3087 3085 3081 3076 3073 3068 3064 3060 3058 3054
3057 3041 3053 3061 3072 3077 3079 3083 3083 3083 3088 3090 3088 3081 3078 3078 3079 3081 3081 3081 3084 3085 3086 3087 3086 3086 3086 3086 3087 3087 3088 3088 3088 3086 3083 3081 3076 3073 3069 3065 3061 3058 3054 3051
3034 3034 3049 3058 3064 3067 3069 3072 3076 3079 3084 3084 3082 3074 3073 3074 3076 3077 3077 3079 3080 3082 3082 3082 3080 3080 3080 3081 3082 3083 3084 3085 3084 3082 3080 3076 3073 3069 3066 3062 3058 3055 3051 3050
3032 3039 3043 3046 3049 3058 3059 3067 3074 3077 3081 3081 3081 3071 3070 3070 3071 3073 3074 3076 3077 3077 3077 3077 3077 3076 3077 3078 3079 3080 3081 3081 3080 3078 3075 3072 3069 3066 3063 3059 3055 3053 3050 3049
3011 3023 3031 3035 3037 3050 3050 3065 3070 3074 3074 3077 3077 3079 3059 3067 3067 3069 3071 3073 3073 3073 3073 3073 3074 3073 3073 3075 3076 3077 3078 3077 3076 3073 3070 3068 3066 3064 3060 3057 3054 3052 3050 3049
3015 3021 3026 3028 3040 3047 3056 3063 3069 3071 3071 3068 3069 3075 3054 3060 3062 3066 3068 3069 3069 3070 3070 3070 3071 3070 3070 3072 3073 3074 3075 3074 3072 3069 3067 3066 3064 3061 3058 3055 3052 3050 3048 3048
3008 3014 3020 3027 3036 3043 3050 3058 3065 3067 3065 3061 3062 3065 3047 3055 3055 3061 3064 3066 3066 3067 3067 3067 3067 3067 3069 3070 3071 3072 3072 3070 3068 3066 3064 3063 3062 3060 3056 3052 3050 3048 3048 3047
3006 3011 3012 3016 3025 3032 3039 3047 3049 3060 3059 3053 3051 3047 3044 3050 3054 3058 3060 3061 3063 3063 3064 3065 3064 3066 3067 3068 3068 3068 3068 3067 3065 3064 3063 3062 3060 3058 3054 3051 3048 3048 3048 3048
2999 3002 3007 3012 3020 3028 3034 3034 3045 3048 3048 3049 3039 3040 3043 3046 3050 3053 3055 3056 3058 3060 3062 3063 3062 3064 3064 3065 3066 3066 3065 3064 3063 3062 3061 3060 3059 3057 3053 3051 3050 3049 3049 3049
2994 2997 2999 3009 3016 3020 3023 3032 3041 3043 3045 3046 3035 3035 3036 3039 3044 3049 3051 3052 3054 3057 3059 3060 3060 3061 3063 3063 3064 3064 3063 3062 3061 3061 3060 3059 3058 3055 3053 3052 3051 3051 3050 3050
2990 2994 2995 3001 2998 3003 3015 3018 3026 3033 3033 3035 3038 3031 3031 3037 3041 3046 3048 3051 3053 3056 3058 3058 3059 3060 3062 3062 3062 3062 3061 3060 3060 3060 3060 3059 3057 3054 3052 3052 3051 3052 3050 3050
2984 2989 2991 2991 2996 3003 3006 3009 3013 3017 3020 3028 3030 3029 3031 3035 3039 3043 3046 3049 3052 3055 3056 3057 3057 3060 3060 3061 3061 3060 3060 3059 3059 3059 3060 3059 3058 3056 3054 3053 3053 3052 3052 3052
2982 2985 2988 2989 2996 2996 2994 3000 3007 3012 3020 3021 3029 3024 3028 3032 3036 3040 3043 3047 3050 3052 3054 3055 3056 3058 3059 3059 3059 3059 3059 3058 3058 3059 3060 3060 3059 3058 3056 3055 3054 3054 3053 3053
2978 2977 2978 2978 2979 2987 2992 2998 3003 3010 3013 3017 3014 3022 3026 3031 3034 3037 3040 3044 3048 3050 3052 3054 3055 3056 3057 3058 3058 3058 3058 3057 3057 3059 3060 3060 3061 3060 3059 3057 3056 3056 3056 3056
2977 2975 2974 2974 2977 2983 2989 2991 2997 2998 3007 3010 3011 3017 3023 3029 3032 3035 3036 3041 3045 3048 3050 3052 3053 3054 3055 3056 3057 3057 3058 3057 3057 3059 3060 3061 3062 3061 3061 3060 3059 3058 3056 3057
2975 2974 2972 2971 2974 2980 2983 2987 2991 2994 3002 3006 3011 3012 3021 3027 3029 3034 3037 3040 3043 3046 3049 3051 3052 3052 3053 3055 3056 3056 3058 3058 3058 3059 3060 3061 3063 3063 3062 3062 3061 3060 3059 3059
2974 2974 2973 2972 2975 2979 2979 2974 2985 2992 2996 3002 3004 3005 3018 3023 3027 3030 3036 3039 3041 3044 3047 3049 3050 3051 3052 3054 3055 3056 3057 3058 3058 3059 3061 3062 3064 3064 3064 3063 3063 3062 3061 3062
2971 2972 2974 2971 2973 2977 2969 2975 2982 2988 2990 2996 3000 3008 3014 3019 3024 3029 3033 3037 3040 3043 3045 3047 3049 3050 3051 3053 3054 3055 3056 3058 3059 3060 3061 3063 3065 3066 3066 3065 3065 3065 3064 3063
2968 2969 2971 2970 2970 2967 2969 2973 2976 2980 2985 2995 2998 3003 3010 3016 3019 3023 3028 3033 3037 3040 3043 3046 3049 3050 3050 3052 3053 3055 3056 3057 3059 3060 3062 3064 3065 3067 3068 3068 3068 3068 3068 3067
2963 2965 2970 2970 2970 2965 2966 2967 2970 2975 2979 2985 2989 2994 3000 3008 3011 3016 3024 3029 3034 3038 3041 3044 3047 3048 3049 3051 3052 3054 3056 3057 3059 3061 3062 3064 3066 3068 3069 3070 3071 3071 3071 3070
2958 2960 2964 2968 2968 2963 2962 2962 2967 2971 2977 2978 2982 2987 2990 2994 3006 3014 3020 3025 3031 3034 3038 3042 3044 3047 3049 3050 3051 3053 3055 3057 3059 3061 3063 3064 3066 3068 3070 3071 3073 3073 3073 3074
2956 2959 2962 2966 2967 2964 2959 2960 2963 2967 2966 2970 2974 2979 2984 2992 2999 3007 3015 3020 3025 3029 3034 3038 3042 3044 3047 3049 3050 3052 3054 3056 3058 3060 3063 3065 3066 3068 3070 3072 3073 3075 3076 3077
2959 2959 2960 2964 2963 2960 2959 2960 2960 2961 2961 2964 2967 2972 2978 2985 2990 2998 3008 3015 3020 3025 3030 3034 3038 3042 3045 3047 3049 3051 3053 3055 3057 3059 3062 3064 3066 3068 3070 3072 3074 3076 3077 3079
2953 2954 2957 2960 2956 2957 2960 2960 2959 2958 2958 2960 2963 2967 2973 2980 2987 2994 3002 3009 3014 3019 3024 3029 3033 3037 3041 3044 3046 3050 3052 3054 3056 3058 3060 3063 3065 3068 3070 3072 3074 3076 3078 3080
2952 2954 2956 2955 2954 2954 2957 2958 2957 2955 2954 2956 2960 2964 2969 2974 2981 2989 2996 3004 3009 3014 3019 3024 3029 3033 3037 3041 3043 3046 3048 3051 3054 3056 3058 3060 3063 3066 3069 3072 3074 3076 3078 3080
2953 2955 2955 2952 2951 2952 2954 2956 2954 2952 2951 2953 2956 2960 2964 2969 2976 2983 2991 2998 3004 3009 3015 3019 3024 3028 3033 3037 3040 3043 3045 3047 3050 3053 3055 3058 3061 3064 3067 3071 3073 3075 3077 3079